TAM3785 SBRP-SBSP

Flight info

Callsign TAM3785
Flight time 0h 32m
Altitude 27000
Route REPAX DCT LOKAR DCT UTLOT
Aircraft A20N/M-SDE2E3FGHIJ1RWXY/LB1

Departure

Time 2026-04-21 20:58
Airport Leite Lopes Airport (SBRP)

Arrival

Time 2026-04-21 21:30
Airport Congonhas–Deputado Freitas Nobre Airport (SBSP)
Time Latitude Longitude Altitude Speed Heading
2026-04-21 20:57 -21.27463 -47.85566 7828 ft 290 kts 235°
2026-04-21 20:58 -21.28627 -47.87361 8654 ft 294 kts 234°
2026-04-21 20:58 -21.29797 -47.89154 9473 ft 296 kts 234°
2026-04-21 20:58 -21.30971 -47.90950 10256 ft 299 kts 234°
2026-04-21 20:58 -21.32177 -47.92791 10839 ft 311 kts 234°
2026-04-21 20:59 -21.33485 -47.94785 11245 ft 327 kts 234°
2026-04-21 20:59 -21.34807 -47.96801 11853 ft 335 kts 234°
2026-04-21 20:59 -21.36232 -47.98797 12552 ft 337 kts 223°
2026-04-21 20:59 -21.38211 -48.00097 13220 ft 337 kts 196°
2026-04-21 21:00 -21.40517 -48.00285 13897 ft 337 kts 172°
2026-04-21 21:00 -21.42838 -47.99899 14601 ft 339 kts 172°
2026-04-21 21:00 -21.45192 -47.99562 15242 ft 343 kts 173°
2026-04-21 21:00 -21.47589 -47.99265 15883 ft 346 kts 174°
2026-04-21 21:01 -21.49989 -47.98992 16512 ft 348 kts 174°
2026-04-21 21:01 -21.52391 -47.98734 17128 ft 351 kts 175°
2026-04-21 21:01 -21.54843 -47.98479 17726 ft 354 kts 175°
2026-04-21 21:01 -21.57328 -47.98226 18298 ft 358 kts 175°
2026-04-21 21:02 -21.59822 -47.97976 18846 ft 361 kts 175°
2026-04-21 21:02 -21.62364 -47.97722 19395 ft 364 kts 175°
2026-04-21 21:02 -21.64900 -47.97470 19930 ft 367 kts 176°
2026-04-21 21:02 -21.67489 -47.97213 20448 ft 371 kts 176°
2026-04-21 21:03 -21.70052 -47.96957 20955 ft 374 kts 176°
2026-04-21 21:03 -21.72673 -47.96697 21467 ft 377 kts 176°
2026-04-21 21:03 -21.75312 -47.96436 21954 ft 380 kts 176°
2026-04-21 21:03 -21.77930 -47.96176 22423 ft 384 kts 176°
2026-04-21 21:04 -21.80639 -47.95906 22930 ft 387 kts 176°
2026-04-21 21:04 -21.83371 -47.95635 23429 ft 390 kts 176°
2026-04-21 21:04 -21.86095 -47.95364 23923 ft 393 kts 176°
2026-04-21 21:04 -21.88827 -47.95090 24414 ft 396 kts 176°
2026-04-21 21:05 -21.91576 -47.94817 24932 ft 397 kts 177°
2026-04-21 21:05 -21.94309 -47.94544 25556 ft 396 kts 177°
2026-04-21 21:05 -21.97069 -47.94268 26123 ft 396 kts 177°
2026-04-21 21:05 -21.99809 -47.93995 26604 ft 398 kts 177°
2026-04-21 21:06 -22.02627 -47.93715 27007 ft 401 kts 177°
2026-04-21 21:06 -22.05410 -47.93438 27108 ft 403 kts 178°
2026-04-21 21:06 -22.08214 -47.93160 27112 ft 403 kts 177°
2026-04-21 21:06 -22.11018 -47.92880 27113 ft 403 kts 177°
2026-04-21 21:07 -22.13808 -47.92603 27115 ft 403 kts 177°
2026-04-21 21:07 -22.16599 -47.92324 27115 ft 403 kts 177°
2026-04-21 21:07 -22.19458 -47.92038 27113 ft 403 kts 177°
2026-04-21 21:07 -22.22269 -47.91757 27113 ft 404 kts 177°
2026-04-21 21:08 -22.25062 -47.91478 27112 ft 404 kts 177°
2026-04-21 21:08 -22.27855 -47.91197 27114 ft 404 kts 177°
2026-04-21 21:08 -22.30681 -47.90912 27111 ft 404 kts 177°
2026-04-21 21:08 -22.33463 -47.90634 27107 ft 404 kts 177°
2026-04-21 21:09 -22.36284 -47.90351 27110 ft 404 kts 177°
2026-04-21 21:09 -22.39079 -47.90068 27108 ft 403 kts 177°
2026-04-21 21:09 -22.41896 -47.89787 27107 ft 403 kts 178°
2026-04-21 21:09 -22.44672 -47.89433 27097 ft 405 kts 170°
2026-04-21 21:10 -22.47315 -47.88359 27094 ft 411 kts 153°
2026-04-21 21:10 -22.49579 -47.86456 27093 ft 418 kts 135°
2026-04-21 21:10 -22.51221 -47.84365 27101 ft 419 kts 131°
2026-04-21 21:10 -22.53039 -47.81906 26965 ft 420 kts 131°
2026-04-21 21:11 -22.54853 -47.79442 26720 ft 418 kts 131°
2026-04-21 21:11 -22.56672 -47.76984 26728 ft 415 kts 131°
2026-04-21 21:11 -22.58476 -47.74560 26899 ft 416 kts 131°
2026-04-21 21:11 -22.60294 -47.72126 27055 ft 419 kts 131°
2026-04-21 21:12 -22.62131 -47.69671 27065 ft 420 kts 131°
2026-04-21 21:12 -22.63963 -47.67224 27064 ft 416 kts 131°
2026-04-21 21:12 -22.65757 -47.64823 27059 ft 400 kts 131°
2026-04-21 21:12 -22.67468 -47.62532 26989 ft 387 kts 131°
2026-04-21 21:13 -22.69144 -47.60290 26589 ft 382 kts 132°
2026-04-21 21:13 -22.70818 -47.58054 25939 ft 382 kts 131°
2026-04-21 21:13 -22.72510 -47.55796 24906 ft 396 kts 131°
2026-04-21 21:13 -22.74276 -47.53439 23789 ft 411 kts 131°
2026-04-21 21:14 -22.76058 -47.51056 23193 ft 409 kts 131°
2026-04-21 21:14 -22.77855 -47.48651 22594 ft 410 kts 131°
2026-04-21 21:14 -22.79643 -47.46261 21954 ft 411 kts 131°
2026-04-21 21:14 -22.81425 -47.43876 21412 ft 409 kts 131°
2026-04-21 21:15 -22.83208 -47.41486 20913 ft 406 kts 130°
2026-04-21 21:15 -22.84988 -47.39097 20419 ft 403 kts 131°
2026-04-21 21:15 -22.86741 -47.36741 19945 ft 400 kts 131°
2026-04-21 21:15 -22.88492 -47.34388 19458 ft 396 kts 130°
2026-04-21 21:16 -22.90189 -47.32105 19001 ft 392 kts 130°
2026-04-21 21:16 -22.91907 -47.29795 18546 ft 389 kts 130°
2026-04-21 21:16 -22.93584 -47.27537 18064 ft 385 kts 131°
2026-04-21 21:16 -22.95273 -47.25261 17608 ft 381 kts 131°
2026-04-21 21:17 -22.96932 -47.23027 17164 ft 377 kts 131°
2026-04-21 21:17 -22.98569 -47.20824 16725 ft 374 kts 130°
2026-04-21 21:17 -23.00196 -47.18634 16286 ft 371 kts 130°
2026-04-21 21:17 -23.01926 -47.16603 15820 ft 365 kts 143°
2026-04-21 21:18 -23.04110 -47.15265 15369 ft 359 kts 161°
2026-04-21 21:18 -23.06515 -47.14620 14930 ft 355 kts 169°
2026-04-21 21:18 -23.08937 -47.14110 14485 ft 352 kts 169°
2026-04-21 21:18 -23.11349 -47.13606 14051 ft 349 kts 169°
2026-04-21 21:19 -23.13734 -47.13097 13625 ft 347 kts 169°
2026-04-21 21:19 -23.16109 -47.12582 13195 ft 345 kts 168°
2026-04-21 21:19 -23.18461 -47.12067 12751 ft 343 kts 168°
2026-04-21 21:19 -23.20777 -47.11556 12339 ft 340 kts 168°
2026-04-21 21:20 -23.23085 -47.11046 12134 ft 329 kts 168°
2026-04-21 21:20 -23.25256 -47.10566 12147 ft 312 kts 168°
2026-04-21 21:20 -23.27390 -47.10098 11876 ft 307 kts 169°
2026-04-21 21:20 -23.29467 -47.09644 11581 ft 302 kts 168°
2026-04-21 21:21 -23.31525 -47.09194 11277 ft 298 kts 168°
2026-04-21 21:21 -23.33532 -47.08754 10982 ft 293 kts 168°
2026-04-21 21:21 -23.35541 -47.08312 10665 ft 290 kts 169°
2026-04-21 21:21 -23.37483 -47.07886 10197 ft 284 kts 169°
2026-04-21 21:22 -23.39422 -47.07461 9511 ft 284 kts 169°
2026-04-21 21:22 -23.41288 -47.06883 8996 ft 276 kts 151°
2026-04-21 21:22 -23.42710 -47.05511 8603 ft 272 kts 124°
2026-04-21 21:22 -23.43445 -47.03630 8265 ft 272 kts 107°
2026-04-21 21:23 -23.43934 -47.01663 7930 ft 271 kts 106°
2026-04-21 21:23 -23.44422 -46.99690 7605 ft 270 kts 106°
2026-04-21 21:23 -23.44921 -46.97705 7274 ft 270 kts 106°
2026-04-21 21:23 -23.45423 -46.95742 6951 ft 268 kts 106°
2026-04-21 21:24 -23.45925 -46.93792 6628 ft 267 kts 106°
2026-04-21 21:24 -23.46424 -46.91867 6301 ft 266 kts 106°
2026-04-21 21:24 -23.46925 -46.89930 5972 ft 264 kts 106°
2026-04-21 21:24 -23.47422 -46.88006 5649 ft 263 kts 106°
2026-04-21 21:25 -23.47912 -46.86110 5475 ft 255 kts 106°
2026-04-21 21:25 -23.48381 -46.84294 5460 ft 241 kts 106°
2026-04-21 21:25 -23.48819 -46.82592 5455 ft 228 kts 106°
2026-04-21 21:25 -23.49234 -46.80980 5445 ft 215 kts 106°
2026-04-21 21:26 -23.49633 -46.79431 5360 ft 210 kts 106°
2026-04-21 21:26 -23.50028 -46.77901 5223 ft 208 kts 106°
2026-04-21 21:26 -23.50421 -46.76379 5096 ft 208 kts 107°
2026-04-21 21:26 -23.50815 -46.74854 4950 ft 207 kts 107°
2026-04-21 21:27 -23.51461 -46.73482 4699 ft 203 kts 135°
2026-04-21 21:27 -23.52520 -46.72578 4672 ft 185 kts 147°
2026-04-21 21:27 -23.53601 -46.71879 4442 ft 172 kts 150°
2026-04-21 21:27 -23.54591 -46.71238 4216 ft 160 kts 149°
2026-04-21 21:28 -23.55509 -46.70612 4002 ft 146 kts 148°
2026-04-21 21:28 -23.56339 -46.70036 3781 ft 137 kts 148°
2026-04-21 21:28 -23.57928 -46.68917 3483 ft 135 kts 147°
2026-04-21 21:29 -23.58723 -46.68359 3337 ft 135 kts 149°
2026-04-21 21:29 -23.59527 -46.67829 3168 ft 134 kts 149°
2026-04-21 21:29 -23.60305 -46.67288 3005 ft 134 kts 148°
2026-04-21 21:29 -23.61100 -46.66722 2839 ft 134 kts 148°
2026-04-21 21:30 -23.61891 -46.66177 2672 ft 133 kts 148°
2026-04-21 21:30 -23.62625 -46.65677 2599 ft 95 kts 148°
2026-04-21 21:30 -23.62992 -46.65423 2599 ft 47 kts 149°
2026-04-21 21:30 -23.63172 -46.65386 2599 ft 13 kts 212°
2026-04-21 21:31 -23.63152 -46.65455 2599 ft 11 kts 328°
2026-04-21 21:31 -23.63078 -46.65504 2599 ft 12 kts 338°
2026-04-21 21:31 -23.62992 -46.65528 2599 ft 13 kts 343°
2026-04-21 21:31 -23.62915 -46.65583 2599 ft 13 kts 327°
2026-04-21 21:32 -23.62833 -46.65640 2599 ft 14 kts 327°
2026-04-21 21:32 -23.62823 -46.65700 2599 ft 7 kts 235°
2026-04-21 21:32 -23.62837 -46.65723 2599 ft 1 kts 237°
2026-04-21 21:32 -23.62844 -46.65735 2599 ft 0 kts 237°